Location: Unspecified
(44.4377°N, 88.0525°W)
Time: 02:51:28
(UTC-05:00)

Cosmos 2058 - Visible Passes

Search period start: 02 April 2015 00:00
Search period end: 12 April 2015 00:00
Orbit: 567 x 590 km, 82.5° (Epoch: 01 April)

Date Brightness Start Highest point End Pass type
(mag) Time Alt. Az. Time Alt. Az. Time Alt. Az.
02 Apr 6.3 21:09:18 10° WNW 21:10:32 11° W 21:11:34 10° W visible
07 Apr 5.5 19:53:36 10° NNW 19:57:05 26° W 20:00:28 10° SW visible
08 Apr 6.0 19:58:37 10° NW 20:01:37 19° W 20:04:31 10° SW visible
09 Apr 6.2 20:03:50 10° NW 20:06:09 14° W 20:08:18 10° WSW visible
10 Apr 6.8 20:09:46 10° WNW 20:10:40 10° W 20:11:18 10° W visible
